Location: Martley
(52.2333°N, 2.3667°W)
Time: 09:46:25
(UTC+00:00)

Cosmos 1634 Rocket - Pass Details

Date: 11 December 2019
Orbit: 960 x 992 km, 82.9° (Epoch: 17 January)

Event Time Altitude Azimuth Distance (km) Brightness Sun altitude
Rises 05:08:01 0° 177° (S) 3,654 7.1 -26.2°
Reaches altitude 10° 05:10:32 10° 175° (S) 2,706 6.4 -25.8°
Maximum altitude 05:16:38 66° 95° (E) 1,055 4.3 -24.9°
Drops below altitude 10° 05:22:46 10° 15° (NNE) 2,710 6.4 -23.9°
Sets 05:25:17 0° 12° (NNE) 3,659 7.1 -23.6°
